Regional Weather Roundup
Issued by NWS

Home | Current Version | Previous Version | Graphics & Text | Print | Product List | Glossary On
Versions: 1 2 3 4 5 6 7 8 9 10 11 12 13 14 15 16 17 18 19 20 21 22 23 24 25 26 27 28 29 30 31 32 33 34 35 36 37 38 39 40 41 42 43 44 45 46 47 48 49 50
000
ASUS43 KOAX 060702
RWRNE

WEATHER ROUNDUP FOR NEBRASKA
NATIONAL WEATHER SERVICE OMAHA NE
200 AM CDT FRI MAY 06 2016

NOTES: SATELLITE DATA IS BEING USED TO AUGMENT CLOUD COVER ABOVE
       12000 FEET.
       "FAIR" INDICATES FEW OR NO CLOUDS BELOW 12,000 FEET WITH NO
       SIGNIFICANT WEATHER AND/OR OBSTRUCTIONS TO VISIBILITY.

  * THESE STATIONS DO NOT REPORT WEATHER SUCH AS RAIN...SNOW OR FOG.

NEZ001>004-019>022-054>056-060800-
NEBRASKA PANHANDLE

CITY           SKY/WX    TMP DP  RH WIND       PRES   REMARKS
SCOTTSBLUFF    CLOUDY    66  41  40 S8        29.96S
ALLIANCE       CLOUDY    53  47  79 S7        29.97S
CHADRON        CLOUDY    64  45  49 SW13      29.91R
KIMBALL        CLOUDY    52  42  70 S7        30.04S
SIDNEY         CLOUDY    58  43  57 S14       30.01F
$$

NEZ057>060-069>072-079>082-060800-
SOUTHWEST NEBRASKA

CITY           SKY/WX    TMP DP  RH WIND       PRES   REMARKS
NORTH PLATTE   CLOUDY    60  47  61 S8        30.00S
IMPERIAL       PTCLDY    60  48  64 S10       30.02S
MCCOOK         MOCLDY    60  45  57 S13       30.02S
$$

NEZ005>010-023>029-035>040-094-060800-
NORTH CENTRAL NEBRASKA

CITY           SKY/WX    TMP DP  RH WIND       PRES   REMARKS
VALENTINE      CLEAR     65  46  50 SW22G29   29.91S
AINSWORTH      CLEAR     63  47  56 S16       29.94S
BROKEN BOW     PTCLDY    61  47  59 SW6       30.00S
ORD            CLOUDY    57  47  69 S12       29.98R
$$

NEZ041-046>049-061>064-073>077-083>087-060800-
SOUTH CENTRAL NEBRASKA

CITY           SKY/WX    TMP DP  RH WIND       PRES   REMARKS
GRAND ISLAND   CLEAR     60  42  51 S13       30.02S
AURORA         CLEAR     61  41  48 S13       30.01S
HASTINGS       CLEAR     58  42  55 S7        30.03S
KEARNEY *      CLEAR     57  43  58 S10       30.03S
YORK           CLEAR     55  43  62 SW9       30.02F
$$

NEZ011>018-030>034-042>045-060800-
NORTHEAST NEBRASKA

CITY           SKY/WX    TMP DP  RH WIND       PRES   REMARKS
NORFOLK        CLEAR     59  41  51 S15       29.97S
ALBION         CLEAR     56  44  64 SE5       29.99S
BLAIR          PTCLDY    59  42  53 S8        30.00S
COLUMBUS *     PTCLDY    63  39  42 S10       30.00S
FREMONT        CLEAR     62  41  45 S12       30.00S
TEKAMAH        PTCLDY    55  44  66 S10       29.99S
$$

NEZ050>053-065>068-078-088>093-060800-
SOUTHEAST NEBRASKA

CITY           SKY/WX    TMP DP  RH WIND       PRES   REMARKS
LINCOLN        CLEAR     59  43  55 SE3       30.03S
OMAHA EPPLEY   PTCLDY    59  46  62 SE9       30.00S
BEATRICE       CLEAR     56  44  63 S6        30.03S
FALLS CITY     PTCLDY    54  43  66 CALM      30.02F
NEBRASKA CITY  CLEAR     57  41  54 SW12      30.02S
$$

NEZ044-045-051>053-067-060800-
OMAHA AREA

CITY           SKY/WX    TMP DP  RH WIND       PRES   REMARKS
OMAHA EPPLEY   PTCLDY    59  46  62 SE9       30.00S
BLAIR          PTCLDY    59  42  53 S8        30.00S
FREMONT        CLEAR     62  41  45 S12       30.00S
OFFUTT AFB     CLEAR     54  47  78 SE5       30.00S
WAHOO          FAIR      59  43  56 SW6       30.00S
$$



USA.gov is the U.S. government's official web portal to all federal, state and local government web resources and services.